Simultaneous Nadir Overpasses (SNOs) Predictions

Prediction of SNOs between FY3D and AQUA Satellite Orbit:

Table of predicted SNOs for the next 14.0 days since TLE Epoch: 10/28/2023
Index Date (FY3D) Time (FY3D) Lat,Lon (FY3D) SZA (FY3D ) Date (AQUA) Time (AQUA) Lat,Lon (AQUA) SZA (AQUA ) Distance(km) Time Diff (sec)
1 10/28/2023 05:21:41 -78.98, -99.70 87.68 10/28/2023 05:22:16 -78.99, -99.81 87.67 2.51 35
2 10/28/2023 06:12:20 78.73, 69.30 92.02 10/28/2023 06:11:34 78.73, 69.35 92.02 1.05 46
3 10/30/2023 18:16:31 -79.21, 64.97 86.54 10/30/2023 18:17:36 -79.20, 65.06 86.56 2.01 65
4 10/30/2023 19:07:05 78.79,-124.73 92.93 10/30/2023 19:06:50 78.80,-124.81 92.94 1.77 15
5 11/02/2023 08:01:56 79.03, 39.94 94.06 11/02/2023 08:02:10 79.03, 40.04 94.04 2.02 14
6 11/02/2023 08:52:32 -78.70,-150.45 86.37 11/02/2023 08:51:25 -78.69,-150.35 86.37 2.23 67
7 11/04/2023 20:56:41 79.07,-153.94 94.89 11/04/2023 20:57:24 79.07,-153.96 94.88 0.46 43
8 11/04/2023 21:47:18 -78.77, 15.43 85.49 11/04/2023 21:46:40 -78.77, 15.45 85.49 0.51 38
9 11/07/2023 09:51:27 79.14, 11.87 95.75 11/07/2023 09:52:38 79.15, 11.75 95.75 2.61 71
10 11/07/2023 10:42:05 -78.89,-178.98 84.58 11/07/2023 10:41:55 -78.89,-179.02 84.57 1.13 10
11 11/09/2023 23:36:51 -78.97, -13.20 83.74 11/09/2023 23:37:08 -78.98, -13.31 83.73 2.51 17



Historial Predications of SNOs between FY3D and AQUA
